Location: Boquerón
(10.0687°N, 67.9212°W)
Time: 11:58:52
(UTC+00:00)

SAR-Lupe-2 - Pass Details

Date: 29 May 2024
Orbit: 481 x 482 km, 98.1° (Epoch: 05 September)

Event Time Altitude Azimuth Distance (km) Brightness Sun altitude
Rises 23:07:07 0° 165° (SSE) 2,530 6.8 -4.9°
Reaches altitude 10° 23:09:11 10° 163° (SSE) 1,651 5.9 -5.4°
Maximum altitude 23:12:43 74° 78° (ENE) 503 3.5 -6.2°
Drops below altitude 10° 23:16:15 10° 353° (N) 1,650 6.7 -7.0°
Sets 23:18:18 0° 351° (N) 2,529 7.7 -7.4°
